College Park, MD

4:33 AM EDT on August 22, 2017 (GMT -0400)
College Park

Weather History for KCGS - November, 2012

Change the Weather History Date:

Tuesday, November 27, 2012

  Actual Average Record
Temperature  
Mean Temperature 39 °F -  
Max Temperature 44 °F 55 °F 72 °F (1979)
Min Temperature 34 °F 34 °F 17 °F (1974)
Degree Days  
Heating Degree Days 26    
Moisture  
Dew Point 39 °F    
Average Humidity 92    
Maximum Humidity 100    
Minimum Humidity 76    
Precipitation  
Precipitation 0.00 in - - ()
Sea Level Pressure  
Sea Level Pressure 30.21 in    
Wind  
Wind Speed 2 mph (North)    
Max Wind Speed 10 mph    
Max Gust Speed 18 mph    
Visibility 7 miles    
Events      
Averages and records for this station are not official NWS values.
T = Trace of Precipitation, MM = Missing Value Source: NWS Daily Summary

Daily Weather History Graph

Daily Weather History Graph

Search for Another Location

Airport or City:

Trip Planner

Search our weather history database for the weather conditions in past years. The results will help you decide how hot, cold, wet, or windy it might be!

Date:

Astronomy

Nov. 27, 2012 Rise Set
Actual Time 7:03 AM EST 4:46 PM EST
Civil Twilight 6:34 AM EST 5:16 PM EST
Nautical Twilight 6:01 AM EST 5:49 PM EST
Astronomical Twilight 5:29 AM EST 6:21 PM EST
Moon 4:16 PM EST (11/27) 6:07 AM EST (11/27)
Length of Visible Light 10h 41m
Length of Day
9h 42m
Waxing Gibbous, 99% of the Moon is Illuminated
Nov 27
Waxing Gibbous
Nov 28
Full
Dec 6
Last Quarter
Dec 13
New
Dec 20
First Quarter

Hourly Weather History & Observations

Time (EST) Temp. Windchill Dew Point Humidity Pressure Visibility Wind Dir Wind Speed Gust Speed Precip Events Conditions
12:20 AM 42.8 °F - 35.8 °F 76% 30.23 in 10.0 mi Calm Calm - N/A   Overcast
12:40 AM 42.1 °F - 36.9 °F 82% 30.21 in 10.0 mi Calm Calm - N/A   Overcast
1:00 AM 42.4 °F - 36.3 °F 79% 30.21 in 10.0 mi Calm Calm - N/A   Overcast
1:20 AM 42.4 °F - 37.2 °F 82% 30.21 in 10.0 mi Calm Calm - N/A   Overcast
1:45 AM 43.3 °F - 36.5 °F 77% 30.21 in 10.0 mi Calm Calm - N/A   Overcast
2:05 AM 43.0 °F - 37.2 °F 80% 30.21 in 10.0 mi Calm Calm - N/A   Overcast
2:45 AM 43.7 °F - 36.9 °F 77% 30.22 in 10.0 mi Calm Calm - N/A   Overcast
3:10 AM 43.9 °F - 37.6 °F 78% 30.21 in 10.0 mi Calm Calm - N/A   Overcast
3:30 AM 43.9 °F - 38.8 °F 82% 30.20 in 10.0 mi Calm Calm - N/A   Overcast
3:50 AM 43.3 °F 41.7 °F 39.6 °F 87% 30.19 in 7.0 mi North 3.5 mph - N/A   Overcast
4:15 AM 43.0 °F 41.3 °F 40.5 °F 91% 30.18 in 7.0 mi North 3.5 mph - N/A   Overcast
4:35 AM 42.8 °F 41.1 °F 40.6 °F 92% 30.20 in 10.0 mi North 3.5 mph - N/A   Overcast
4:55 AM 42.8 °F 41.1 °F 41.2 °F 94% 30.21 in 7.0 mi North 3.5 mph - N/A   Overcast
5:15 AM 42.8 °F - 41.4 °F 95% 30.20 in 7.0 mi Calm Calm - N/A   Overcast
5:40 AM 42.4 °F - 41.4 °F 96% 30.19 in 7.0 mi Calm Calm - N/A   Overcast
6:00 AM 42.6 °F 40.9 °F 41.5 °F 96% 30.19 in 7.0 mi North 3.5 mph - N/A   Overcast
6:15 AM 42.8 °F - 41.4 °F 95% 30.19 in 7.0 mi Calm Calm - N/A   Overcast
6:40 AM 42.6 °F 40.9 °F 41.5 °F 96% 30.18 in 7.0 mi NE 3.5 mph - N/A   Overcast
7:05 AM 42.4 °F 40.7 °F 41.9 °F 98% 30.17 in 5.0 mi NNE 3.5 mph - N/A   Overcast
7:25 AM 42.8 °F - 41.7 °F 96% 30.18 in 7.0 mi Calm Calm - N/A   Overcast
7:45 AM 42.8 °F - 41.9 °F 97% 30.18 in 4.0 mi Calm Calm - N/A   Overcast
8:05 AM 42.8 °F - 42.1 °F 97% 30.18 in 3.0 mi Calm Calm - N/A   Overcast
8:30 AM 43.0 °F 40.3 °F 42.8 °F 99% 30.20 in 2.5 mi NNW 4.6 mph - N/A   Overcast
8:50 AM 43.2 °F - 43.0 °F 99% 30.20 in 2.5 mi Calm Calm - N/A   Overcast
9:10 AM 43.7 °F - 43.3 °F 99% 30.20 in 2.5 mi Calm Calm - N/A   Overcast
9:30 AM 43.7 °F 42.1 °F 43.3 °F 99% 30.20 in 3.0 mi North 3.5 mph - N/A   Overcast
9:55 AM 44.1 °F 40.8 °F 43.7 °F 99% 30.20 in 3.0 mi North 5.8 mph - N/A   Overcast
10:15 AM 44.1 °F 40.8 °F 43.7 °F 99% 30.21 in 3.0 mi NNW 5.8 mph - N/A   Overcast
10:55 AM 43.0 °F 38.8 °F 42.8 °F 99% 30.22 in 3.0 mi NNW 6.9 mph - N/A   Overcast
11:20 AM 42.8 °F 39.3 °F 42.1 °F 97% 30.21 in 4.0 mi NNW 5.8 mph - N/A   Overcast
1:05 PM 41.9 °F 38.2 °F 41.0 °F 97% 30.19 in 4.0 mi North 5.8 mph - N/A   Overcast
1:25 PM 41.9 °F 36.9 °F 41.0 °F 97% 30.19 in 4.0 mi North 8.1 mph - N/A   Overcast
1:45 PM 41.9 °F 37.5 °F 40.6 °F 95% 30.19 in 4.0 mi NNW 6.9 mph - N/A   Overcast
2:10 PM 41.5 °F 37.1 °F 40.3 °F 95% 30.19 in 5.0 mi NNW 6.9 mph - N/A   Overcast
2:30 PM 41.9 °F 37.5 °F 40.1 °F 93% 30.19 in 7.0 mi NNW 6.9 mph - N/A   Overcast
2:50 PM 41.9 °F 37.5 °F 39.9 °F 93% 30.18 in 10.0 mi North 6.9 mph - N/A   Overcast
3:35 PM 42.3 °F 38.6 °F 39.6 °F 90% 30.20 in 10.0 mi NNW 5.8 mph - N/A   Overcast
3:55 PM 42.4 °F 38.1 °F 39.7 °F 90% 30.20 in 10.0 mi NNW 6.9 mph - N/A   Overcast
4:15 PM 42.6 °F 39.9 °F 39.7 °F 90% 30.20 in 10.0 mi NNW 4.6 mph - N/A   Overcast
4:35 PM 42.8 °F 41.1 °F 40.1 °F 90% 30.20 in 10.0 mi NW 3.5 mph - N/A   Overcast
5:20 PM 42.1 °F 37.1 °F 37.8 °F 85% 30.21 in 10.0 mi North 8.1 mph 18.4 mph N/A   Overcast
5:40 PM 42.1 °F 36.1 °F 37.9 °F 85% 30.22 in 10.0 mi NNW 10.4 mph 16.1 mph N/A   Overcast
6:25 PM 40.5 °F 35.8 °F 36.1 °F 85% 30.23 in 10.0 mi North 6.9 mph - N/A   Scattered Clouds
6:45 PM 40.1 °F 36.1 °F 36.1 °F 86% 30.24 in 10.0 mi NNW 5.8 mph - N/A   Clear
7:05 PM 40.1 °F 34.1 °F 36.5 °F 87% 30.25 in 10.0 mi North 9.2 mph - N/A   Scattered Clouds
7:25 PM 39.6 °F 37.4 °F 36.5 °F 89% 30.26 in 10.0 mi North 3.5 mph - N/A   Overcast
8:30 PM 38.7 °F 34.3 °F 35.6 °F 89% 30.26 in 10.0 mi North 5.8 mph - N/A   Clear
8:50 PM 38.7 °F - 35.2 °F 87% 30.26 in 10.0 mi Calm Calm - N/A   Clear
9:15 PM 36.9 °F - 34.7 °F 92% 30.27 in 10.0 mi Calm Calm - N/A   Clear
9:35 PM 35.8 °F - 35.4 °F 99% 30.27 in 7.0 mi Calm Calm - N/A   Clear
9:55 PM 34.7 °F - 34.7 °F 100% 30.27 in 4.0 mi Calm Calm - N/A   Clear
10:15 PM 34.7 °F - 34.7 °F 100% 30.28 in 5.0 mi Calm Calm - N/A   Mostly Cloudy
10:40 PM 34.9 °F - 34.9 °F 100% 30.28 in 5.0 mi Calm Calm - N/A   Overcast
11:00 PM 35.1 °F - 35.1 °F 100% 30.27 in 5.0 mi Calm Calm - N/A   Overcast
11:20 PM 35.6 °F - 35.6 °F 100% 30.26 in 5.0 mi Calm Calm - N/A   Overcast